Location: downtown San Diego
(32.7310°N, 117.1990°W)
Time: 08:30:24
(UTC-08:00)

ERS-1 Rocket - Pass Details

Date: 19 May 2017
Orbit: 753 x 758 km, 98.6° (Epoch: 22 November)

Event Time Altitude Azimuth Distance (km) Brightness Sun altitude
Exits shadow 21:20:47 33° 136° (SE) 1,244 3.5 -18.1°
Maximum altitude 21:22:48 56° 74° (ENE) 891 3.1 -18.4°
Drops below altitude 10° 21:27:42 10° 357° (N) 2,283 6.0 -19.2°
Sets 21:30:02 0° 353° (N) 3,212 7.0 -19.6°
